Orbital elements:
2000 NM
Epoch 2001 Oct. 18.0 TT = JDT 2452200.5                 MPC
M  93.64449              (2000.0)            P               Q
n   0.22349893     Peri.   69.86986     +0.89377494     +0.23666291
a   2.6891751      Node   274.89845     -0.38944883     +0.83085496
e   0.6603375      Incl.   22.48189     +0.22247688     +0.50365732
P   4.41           H   15.6           G   0.15           U   2
Residuals in seconds of arc
000702 823  0.6-  0.8+    000710 118  0.0   0.2-    000729 095  0.1-  0.2+
000702 823  0.1-  0.9-    000710 118  0.0   0.2-    000729 095  0.1+  0.2+
000702 046  0.0   0.4+    000710 118  0.0   0.2-    000729 095  0.0   0.4+
000702 046  0.1-  0.2+    000711 726  0.1+  1.9-    000729 095  0.1+  0.3+
000702 046  0.1-  0.1+    000711 726  0.2+  2.1-    000729 095  0.2+  0.1+
000702 046  0.0   0.2+    000711 726  0.1+  1.5-    000729 095  0.1+  0.2+
000702 046  0.0   0.2+    000711 726  0.2+  1.5-    000729 095  0.1+  0.3+
000702 046  0.2-  0.3+    000711 726  1.1-  2.8-    000729 095  0.2+  0.2+
000702 557  0.2-  0.1-    000711 726  0.2+  1.8-    000729 095  0.1-  0.1+
000702 557  0.0   0.0     000711 658  0.3+  0.1-    000729 095  0.1+  0.2+
000702 557  0.1-  0.2+    000711 658  0.1+  0.0     000729 095  0.1+  0.1+
000702 557  0.1-  0.2-    000711 658  0.3+  0.3-    000729 095  0.1+  0.2+
000702 557  0.1-  0.1-    000711 118  0.1+  0.4+    000729 095  0.1-  0.2+
000702 557  0.0   0.4-    000711 118  0.1+  0.4+    000729 095  0.1+  0.2+
000702 557  0.0   0.0     000712 823  0.4+  0.4-    000729 095  0.2+  0.2+
000702 557  0.1+  0.0     000712 823  0.5+  0.4-    000729 095  0.2+  0.2+
000702 557  0.1+  0.1+    000712 823  0.2+  0.1+    000729 095  0.3+  0.1+
000702 557  0.1+  0.1+    000712 823  0.4+  0.0     000729 095  0.0   0.2+
000702 557  0.1-  0.5+    000712 642  0.8+  0.2-    000729 095  0.0   0.2+
000702 557  0.1+  0.2+    000712 642  0.1-  0.3-    000729 095  0.0   0.3+
000702 595  0.1+  0.1-    000712 642  1.1+  0.9-    000729 095  0.2+  0.6+
000702 595  0.0   0.0     000712 642  0.1+  0.3-    000729 095  0.1+  0.3+
000702 595  0.1+  0.0     000712 642  0.4-  0.2-    000729 095  0.1+  0.3+
000703 823  0.5-  1.4+    000712 900  0.2+  0.3-    000729 095  0.1+  0.2+
000703 823  0.4-  1.1+    000712 900  0.4+  0.4-    000729 095  0.2+  0.2+
000703 823  0.0   0.8+    000712 046  0.3+  0.0     000729 095  0.1+  0.0
000703 823  0.2+  1.2+    000712 046  0.3+  0.1-    000729 095  0.3+  0.2+
000703 854  0.6-  0.9+    000712 046  0.3+  0.2+    000729 095  0.0   0.1+
000703 854  0.6-  1.2+    000712 046  0.3+  0.3-    000729 095  0.0   0.4+
000703 854  0.5-  1.3+    000713 739  0.6+  0.4-    000729 095  0.1+  0.3+
000703 682  0.8-  2.0+    000713 739  0.6+  0.6-    000729 095  0.1+  0.2+
000703 854  0.3-  1.1+    000713 739  0.2+  0.8-    000729 095  0.2-  0.2+
000703 854  0.4-  0.5+    000713 739  0.4+  0.4-    000729 095  0.0   0.2+
000703 854  0.1-  0.7+    000713 726  0.1-  0.3-    000729 095  0.0   0.1+
000703 642  0.2-  0.7+    000713 726  0.2+  0.5-    000729 095  0.0   0.3+
000703 642  0.5-  0.8+    000713 726  0.3+  0.2-    000729 095  0.1+  0.2+
000703 642  0.5-  0.1+    000713 726  0.2+  0.2-    000729 095  0.1+  0.3+
000703 682  0.2-  0.0     000713 726  0.3+  0.2-    000729 095  0.1-  0.2+
000703 670  0.0   0.3+    000713 726  0.3+  0.6-    000729 095  0.0   0.2+
000703 670  0.2+  0.2+    000713 170  0.8+  0.4-    000729 095  0.0   0.1+
000703 854  0.5-  0.2+    000713 118  0.6+  0.5-    000729 095  0.1+  0.1+
000703 854  0.8-  0.3+    000713 170  0.7+  0.7-    000729 095  0.2-  0.3+
000703 682  0.5+  1.4-    000713 170  0.8+  0.5-    000729 095  0.1+  0.3+
000703 670  0.2+  0.2+    000713 118  0.8+  0.3-    000729 095  0.2-  0.3+
000703 673  1.5-  0.8+    000714 726  0.1+  0.2-    000729 095  0.2+  0.3+
000703 673  2.1-  0.3+    000714 726  0.1-  0.2+    000729 095  0.3-  0.3+
000703 670  0.4+  0.2+    000714 726  0.6-  0.6+    000729 095  0.0   0.3+
000703 300  0.0   0.5-    000714 726  0.4+  0.6+    000730 642  0.5+  1.2-
000703 300  0.1+  0.2-    000714 726  0.5-  0.0     000730 642  0.1+  0.3+
000703 300  0.3-  0.3+    000714 726  0.4-  2.3+    000730 642  0.5-  0.6+
000703 300  0.1-  0.2+    000714 095  0.0   0.6+    000730 095  0.8-  0.2+
000703 900  0.3+  0.2-    000714 095  0.3+  0.7+    000730 151  0.7-  0.3+
000703 900  0.2+  0.2-    000714 095  0.1+  0.6+    000730 151  0.7-  0.1+
000703 900  0.0   0.0     000714 095  0.1+  0.9+    000730 151  0.8-  0.1+
000703 900  0.2+  0.1+    000714 095  0.0   0.6+    000730 151  0.7-  0.1+
000703 402  0.1+  0.1+    000714 095  0.2+  0.6+    000730 151  0.8-  0.2+
000703 402  0.0   0.2+    000714 095  0.3+  0.7+    000730 151  0.6-  0.1+
000703 402  0.1-  0.7+    000714 095  0.1+  0.7+    000730 457  0.3+  1.4-
000703 402  0.1+  0.2+    000714 095  0.2+  0.7+    000730 457  0.1+  1.2-
000703 349  0.1+  0.1+    000714 095  0.1+  0.5+    000731 642  0.9+  0.8+
000703 349  0.3+  0.4+    000714 095  0.1+  0.6+    000731 642  1.1-  0.0
000703 349  0.1+  0.2-    000714 095  0.1+  0.5+    000731 642  0.6+  0.1+
000703 349  0.2+  0.4+    000714 095  0.0   0.6+    000731 642  0.2-  0.1+
000703 349  0.2+  0.3+    000714 095  0.0   0.8+    000731 642  0.5-  0.1-
000703 611  0.1+  0.1-    000714 095  0.0   0.7+    000731 457  0.9+  0.7-
000703 611  0.1+  0.1+    000714 095  0.2+  0.5+    000731 457  0.7+  0.5-
000703 611  0.2-  0.2+    000714 095  0.1-  0.7+    000731 457  0.6+  0.9-
000703 611  0.0   0.2+    000714 095  0.0   0.7+    000731 457  0.6+  0.6-
000703 611  0.1+  0.1+    000714 095  0.2-  0.4+    000731 457  0.4+  0.7-
000703 611  0.0   0.1+    000714 095  0.1+  0.4+    000801 642  0.7-  0.0
000703 611  0.1+  0.1-    000714 095  0.1-  0.4+    000801 642  0.7-  0.1+
000703 493  0.3-  0.1+    000714 095  0.1+  0.5+    000801 642  0.5-  0.6+
000703 611  0.1-  0.1+    000714 095  0.0   0.5+    000801 642  1.0-  0.6+
000703 611  0.1+  0.1-    000714 095  0.0   0.4+    000801 642  1.1-  0.7-
000703 611  0.1+  0.1-    000715 726  0.4+  0.2-    000801 540  0.4+  0.1+
000703 493  0.1+  0.3+    000715 726  0.4+  0.2-    000801 540  0.5+  0.0
000703 611  0.0   0.0     000715 726  0.2+  0.1-    000801 540  0.5+  0.0
000703 611  0.0   0.1+    000715 726  0.2+  0.3-    000801 151  0.5-  0.5+
000703 611  0.0   0.0     000715 726  0.2+  0.1-    000801 151  0.5-  0.2+
000703 493  0.0   0.5+    000715 726  0.2+  0.2-    000801 151  0.3-  0.5+
000703 611  0.2+  0.1+    000715 739  0.0   1.3+    000801 151  0.4-  0.5+
000703 611  0.1+  0.2+    000715 739  0.2+  0.0     000801 151  0.3-  0.3+
000703 611  0.0   0.2+    000715 739  0.3+  0.1+    000801 151  0.2-  0.4+
000703 493  0.1+  0.2+    000715 095  0.2+  0.1-    000801 151  0.2-  0.2+
000703 611  0.0   0.2-    000715 095  0.2+  0.1-    000802 642  1.4+  0.4+
000703 163  0.2+  0.1+    000715 095  0.2+  0.1-    000802 642  1.8+  0.3-
000703 611  0.0   0.0     000715 095  0.2+  0.2-    000802 642  1.5-  0.1-
000703 163  0.0   0.2+    000715 095  0.2+  0.2-    000802 642  1.3-  0.3-
000703 163  0.1+  0.4+    000715 095  0.2+  0.1+    000802 642  2.3-  0.5-
000703 163  0.3+  0.2+    000715 095  0.1+  0.0     000802 118  0.3+  0.2+
000703 163  0.2+  0.4+    000715 095  0.2+  0.1-    000802 118  0.2+  0.2+
000703 163  0.1+  0.1+    000715 095  0.2+  0.2-    000803 642  1.1+  0.6+
000703 106  0.2+  0.5+    000715 095  0.2+  0.1-    000803 642  0.2+  1.9+
000703 106  0.2+  0.2+    000715 095  0.3+  0.1+    000803 642  1.1-  0.6+
000703 106  0.4+  0.2+    000715 095  0.1+  0.2+    000804 642  1.1+  2.3+
000703 171 (1.9-  3.6+)   000715 095  0.3+  0.1-    000804 642  0.0   0.7+
000703 171 (1.5-  3.7+)   000715 095  0.0   0.1+    000804 642  2.5+  0.1+
000703 171 (1.5-  3.6+)   000715 095  0.3+  0.0     000804 642  1.5+  0.4-
000703 171 (1.3-  3.8+)   000715 095  0.3+  0.1+    000805 642  0.1+  1.7+
000704 541  0.0   0.1+    000715 095  0.2+  0.1-    000805 642  0.7+  1.3+
000704 541  0.1+  0.0     000715 095  0.2+  0.1-    000805 642  0.6+  1.0+
000704 541  0.1+  0.2+    000715 095  0.1+  0.0     000805 642  0.4+  1.9+
000704 808  0.7-  1.3-    000716 739  0.3+  0.1-    000805 642  0.8+  0.7+
000704 808  0.8-  1.0-    000716 739  0.2+  0.2-    000807 642  0.8+  0.1-
000704 808  0.0   2.2-    000716 739  0.2+  0.0     000807 642  2.2+  0.3+
000704 808  0.8-  1.0-    000716 642  0.3+  0.7-    000807 642  1.3+  0.7+
000704 808  1.0-  2.8-    000716 642  0.8+  0.6-    000812 151  0.4+  0.5+
000704 808  0.5-  1.2-    000716 642  0.1-  0.5-    000812 151  0.1+  0.5+
000704 808  1.0-  0.4-    000716 642  0.0   0.5+    000812 151  0.0   0.3+
000704 762  0.0   0.3+    000716 642  0.2+  0.5-    000812 151  0.1+  0.5+
000704 762  0.2+  0.1-    000716 642  0.5+  0.3+    000812 151  0.2-  0.2+
000704 762  0.1+  0.1-    000716 642  0.3+  0.1+    000812 151  0.1-  0.4+
000704 762  0.1+  0.2-    000717 726  0.5+  0.2-    000815 642  1.1-  1.3+
000704 762  0.1+  0.2+    000717 726  0.5+  0.1-    000815 642  1.1-  0.7+
000704 762  0.1-  0.3+    000717 726  0.5+  0.3-    000815 642  0.9+  0.3-
000704 808  1.0-  2.3-    000717 726  0.6+  0.0     000815 642  1.2-  0.0
000704 762  0.0   0.3+    000717 157  0.6+  0.1+    000816 046  0.1-  0.4+
000704 762  0.1+  0.3+    000717 157  0.1+  0.3-    000816 046  0.3+  0.6+
000704 762  0.1+  0.3+    000717 157  0.4-  0.2+    000816 046  0.1+  0.4+
000704 762  0.1+  0.5+    000718 726  0.2-  0.2-    000816 046  0.1+  0.4+
000704 762  0.3+  0.3+    000718 726  0.6-  0.0     000817 642  1.4+  1.7+
000704 762  0.2+  0.4+    000718 726  0.4-  0.2-    000817 642  0.6+  0.4-
000704 762  0.3+  0.4+    000718 726  1.3-  0.7-    000817 642  0.3+  0.3+
000704 762  0.2+  0.7+    000718 726  1.2-  0.5-    000829 349  0.1+  0.5+
000704 762  0.3+  0.5+    000718 726  0.6-  0.1+    000829 349  0.1-  0.9+
000704 762  0.2+  0.5+    000718 095  0.4-  1.0+    000829 349  0.4+  0.7+
000704 762  0.1+  0.5+    000718 095  0.6-  1.1+    000902 349  0.9-  0.2-
000704 762  0.4+  0.8+    000718 095  0.5-  1.0+    000902 349  0.2-  0.1+
000704 762  0.3+  0.5+    000718 095  0.7-  1.1+    000902 349  0.4-  0.2-
000704 670  0.4-  0.3+    000718 095  0.7-  1.3+    000902 349  0.3-  0.1+
000704 670  0.0   0.3+    000718 095  0.6-  1.0+    000927 349  0.5-  0.1+
000704 670  0.3+  0.2+    000718 095  0.5-  0.9+    000927 349  0.5-  0.3+
000704 300  0.3-  0.3-    000718 095  0.5-  1.1+    000927 349  0.3-  0.0
000704 300  0.0   0.2-    000718 095  0.4-  1.0+    000927 349  0.2-  0.3+
000704 300  0.0   0.2-    000718 095  0.5-  1.2+    000929 349  0.2-  0.0
000704 151  0.8-  0.4+    000718 095  0.5-  1.2+    000929 349  0.2-  0.2-
000704 151  0.7-  0.2+    000718 095  0.6-  1.2+    000929 349  0.1-  0.5+
000704 151  0.7-  0.2+    000718 095  0.7-  1.1+    001006 349  0.0   0.2+
000704 151  0.7-  0.2+    000718 095  0.6-  1.0+    001006 349  0.2-  0.3+
000704 151  0.9-  0.9+    000718 095  0.5-  1.1+    001006 349  0.3-  0.2-
000704 151  0.7-  0.3+    000718 095  0.5-  1.0+    001007 349  0.1+  0.5+
000704 170  0.0   0.8+    000718 095  0.3-  1.1+    001007 349  0.1-  0.1-
000704 170  0.6-  0.2+    000718 095  0.5-  1.1+    001007 349  0.0   0.7+
000704 095  0.4-  0.6+    000718 095  0.4-  1.0+    001011 349  0.2-  0.4+
000704 170  0.5-  0.1+    000718 095  0.5-  1.1+    001011 349  0.5+  0.4-
000704 493  0.3+  0.4+    000718 151  0.7-  0.4-    001011 349  0.2-  0.0
000704 493  0.4+  0.0     000718 151  0.8-  0.0     001015 670  0.0   0.3+
000704 095  0.4-  0.5+    000718 151  0.5-  0.2-    001015 670  0.9-  0.7+
000704 095  0.3-  0.1+    000718 151  0.5-  0.3-    001018 349  0.3-  0.6+
000704 493  0.2-  0.1-    000718 151  0.9-  0.4-    001018 349  0.6-  0.0
000704 095  0.4-  0.0     000718 151  0.9-  0.5-    001018 349  0.9-  0.6+
000704 860  0.2-  0.4+    000718 151  1.0-  0.5-    001104 349  0.2+  0.7-
000704 860  0.6-  0.5-    000718 151  0.8-  0.4-    001104 349  0.1+  0.5+
000704 860  0.1-  0.8+    000718 151  1.1-  0.7+    001104 349  0.7-  0.1+
000704 860  0.6-  0.3+    000718 151  0.8-  0.3-    001104 349  0.3+  0.5+
000704 493  0.4-  0.5-    000718 151  0.5-  0.4-    001106 704  0.0   0.2+
000704 095  0.6-  0.5+    000718 151  0.8-  0.5-    001106 704  0.2-  0.4+
000704 860  0.3-  1.0+    000718 627  0.1+  0.9-    001106 704  0.2+  0.5+
000704 860  0.8-  0.1+    000718 627  0.1-  0.4-    001106 704  0.4+  0.7+
000704 860  0.4-  0.8+    000718 627  0.1+  0.4-    001110 349  0.0   0.4+
000704 860  0.8-  0.4-    000718 627  0.0   0.8-    001110 349  0.1+  0.1-
000704 860  0.4-  0.7+    000718 627  0.3+  0.6-    001110 349  0.7+  0.2-
000705 808  0.2-  0.0     000718 627  0.0   0.3-    001117 739  0.5-  0.3-
000705 726  0.4+  0.2+    000718 627  0.0   1.0-    001117 739  0.2-  0.4-
000705 726  0.1+  0.1-    000718 627  0.2+  0.6-    001117 739  0.5-  0.3-
000705 726  0.0   0.0     000718 627  0.2+  0.8-    001117 739  0.5-  0.0
000705 726  0.0   0.4-    000718 627  0.1-  0.6-    001118 349  0.4+  1.1+
000705 726  0.1-  0.4-    000718 627  0.2+  1.1-    001118 349  0.3-  0.1-
000705 726  0.3-  0.7-    000718 627  0.3+  0.8-    001118 349  0.6-  0.4+
000705 739  0.4-  0.4+    000718 627  0.1-  0.8-    001118 349  0.2-  0.6+
000705 739  0.3-  0.7-    000718 627  0.4+  0.8-    001121 071  0.0   0.2+
000705 739  0.1+  0.7-    000718 627  0.3-  0.8-    001121 071  0.1-  0.0
000705 739  0.3-  0.6-    000719 726  0.6+  0.0     001121 071  0.4-  0.1-
000705 739  0.3-  0.7-    000719 726  0.5+  0.3+    001121 071  0.3-  0.0
000705 808  0.4-  1.0+    000719 726  0.8+  0.5-    001122 071  1.8+  1.3+
000705 706  0.7-  0.7-    000719 726  0.6+  0.0     001122 071  2.0+  1.1+
000705 706  0.7-  0.6-    000719 726  0.7+  0.0     001122 071  2.0+  1.1+
000705 849  0.2-  0.9-    000719 726  0.8+  0.4-    001123 349  0.7-  0.2+
000705 849 (0.1+  3.6+)   000719 402  0.4+  0.2-    001123 349  0.2-  0.3+
000705 849  0.2-  0.9-    000719 402  0.4+  0.2-    001123 349  0.2-  0.5+
000705 706  0.3-  0.2-    000719 402  0.4+  0.3-    001123 349  0.4-  0.1+
000705 706  0.0   0.3+    000720 349  0.4+  0.3+    001127 557  0.1-  0.1+
000705 900  0.1-  0.7+    000720 349  0.4+  0.4+    001127 557  0.1-  0.1+
000705 300  0.2-  0.2-    000720 349  0.3+  0.5+    001128 726  0.6-  0.0
000705 300  0.5-  0.2-    000720 151  0.1+  0.0     001128 726  0.2-  0.5-
000705 300  0.2-  0.1+    000720 151  0.0   0.1-    001128 726  1.0+  0.8-
000705 900  0.1+  0.1+    000720 151  0.1-  0.1-    001128 726  0.0   0.9-
000705 900  0.0   0.2+    000720 151  0.0   0.1+    001128 726  0.2+  0.8-
000705 402  0.0   0.1+    000720 151  0.0   0.3-    001128 726  0.7-  0.8-
000705 402  0.1+  0.2-    000720 151  0.1-  0.1+    001128 610  0.5-  0.0
000705 402  0.1+  0.2-    000720 151  0.1-  0.1+    001128 610  0.5-  0.2+
000705 118  0.1-  0.0     000720 151  0.2-  0.8+    001128 610  0.5-  0.4+
000705 118  0.0   0.2+    000720 151  0.1-  0.2+    001128 610  0.5-  0.6+
000705 118  0.1+  0.2+    000720 517  0.2+  0.1-    001128 610  0.6-  0.8+
000705 493  0.4+  0.3+    000720 517  0.8+  0.1+    001128 183  0.4+  0.6+
000705 493  0.2+  0.4+    000720 517  0.2+  0.4-    001129 183  0.5+  0.5+
000705 493  0.1+  0.3+    000720 517  0.5+  1.0-    001129 183  0.7+  0.2-
000705 493  0.1+  0.3+    000720 517  0.4+  0.5-    001129 183  0.2+  0.2+
000705 557  0.3-  0.5-    000720 517  0.1+  0.2-    001129 183  0.3-  0.2+
000705 157  0.5+  0.4+    000720 517  0.1-  0.5-    001129 183  0.2+  0.4+
000705 157  0.2+  0.4+    000721 726  0.2+  0.7+    001129 183  0.1+  0.3+
000705 157  0.1+  0.3+    000721 726  0.2+  0.6+    001129 183  0.2-  0.4+
000705 557  0.3-  0.5-    000721 726  0.1+  0.9+    001129 183  0.2-  0.2+
000705 157  0.1+  0.4+    000721 726  0.4+  0.5+    001129 183  0.3-  0.3+
000705 157  0.1-  0.5+    000721 726  0.2+  0.8+    001129 183  0.1-  0.3+
000705 157  0.1-  0.3+    000721 726  0.1+  0.8+    001130 095  0.0   0.3-
000705 157  0.1+  0.2+    000721 704  0.4+  0.0     001130 095  0.1+  0.3-
000705 157  0.0   0.4+    000721 704  0.7+  0.2-    001130 095  0.0   0.5-
000705 635  0.7-  1.5+    000721 704  0.8+  0.5-    001130 183  0.4-  0.1+
000705 635  0.8-  1.9+    000721 704  1.3+  0.8-    001201 183  0.0   0.4+
000705 635  0.8-  2.1+    000721 900  0.1-  0.1+    001201 095  0.5-  0.4-
000705 635  1.1-  2.2+    000721 900  0.1+  0.0     001201 095  0.3+  0.6-
000705 635  0.6-  1.9+    000721 360  0.1-  0.3-    001201 183  0.5-  0.3+
000705 635  0.1-  0.6-    000721 360  0.3-  0.0     001201 183  0.9+  1.0+
000705 557  0.2-  0.4-    000721 360  0.1-  0.1-    001201 095  0.4+  0.0
000705 557  0.3-  0.5-    000721 347  0.2+  0.3-    001201 095  0.1-  0.3-
000705 541  0.0   0.0     000721 347  0.1+  0.1-    001201 183  0.1-  0.0
000706 541  0.1+  0.2+    000721 347  0.3+  0.1-    001201 095  0.2+  0.4-
000706 557  0.3-  0.6-    000721 095  0.4-  0.0     001201 183  0.1-  0.7+
000706 541  0.2+  0.0     000721 095  0.3-  0.2+    001201 183  0.9-  0.2+
000706 735  0.1+  0.2+    000721 095  0.3-  0.1-    001201 095  0.0   0.7-
000706 735  0.1+  0.1+    000721 095  0.4-  0.1-    001201 183  0.2-  0.3+
000706 735  0.0   0.0     000721 095  0.3-  0.1-    001201 183  0.2-  0.5+
000706 706  0.5+  1.2-    000721 095  0.4-  0.0     001201 610  0.8+  0.2-
000706 706  0.2-  0.5-    000721 095  0.3-  0.0     001201 610  0.7+  0.1-
000706 706  1.8-  1.1-    000721 095  0.3-  0.1-    001201 610  0.8+  0.2-
000706 706  1.5+  1.6-    000721 095  0.4-  0.2-    001201 610  0.7+  0.2-
000706 706  0.4-  0.1+    000721 151  0.3-  0.3-    001201 610  0.8+  0.2-
000706 706  0.2-  0.3-    000721 151  0.2-  0.2-    001202 711  0.1+  0.3-
000706 704  1.2+  0.1+    000721 151  0.5-  0.1+    001202 711  0.5+  0.2-
000706 704  0.4+  0.3+    000721 151  0.3-  0.2-    001202 711  0.4+  0.2-
000706 704  1.1-  0.5-    000721 151  0.2-  0.1+    001203 739  0.7-  0.7-
000706 704  0.2+  0.2-    000721 151  0.3-  0.0     001203 739  0.5-  0.8-
000706 704  0.4-  0.4+    000722 726  0.1-  0.1+    001203 739  0.0   0.9-
000706 355  0.2+  0.3-    000722 726  0.6-  0.1-    001203 349  1.3+  0.3+
000706 355  0.1+  0.0     000722 726  0.0   0.1+    001203 349  0.9+  0.2+
000706 355  0.0   0.2+    000722 726  0.1-  0.1-    001203 349  0.7+  0.7+
000706 355  0.2+  0.2-    000722 726  0.1-  0.2-    001204 704  0.1-  0.3+
000706 903  0.0   0.6-    000722 739  0.2-  0.5+    001204 704  0.1-  0.1+
000706 903  0.0   0.5-    000722 739  0.0   0.3-    001204 704  0.3-  0.1+
000706 903  0.0   0.3-    000722 739  0.1+  0.5-    001204 704  0.1-  0.1-
000706 413  0.0   0.2-    000722 349  0.3+  0.6-    001204 704  0.1-  0.2-
000706 413  0.0   0.4-    000722 349  0.3+  0.2-    001205 113  0.3+  0.3+
000706 151  0.2+  0.1-    000722 349  0.1+  0.3-    001205 113  0.2-  0.4+
000706 151  0.2+  0.1-    000722 900  0.3+  0.0     001205 113  0.1+  0.2+
000706 151  0.2+  0.0     000722 900  0.3+  0.1+    001205 113  0.1+  0.3+
000706 151  0.1+  0.2-    000722 151  0.4-  0.5-    001205 113  0.2+  0.1+
000706 151  0.1+  0.2-    000722 151  0.1-  0.6-    001206 704  0.2-  0.2+
000706 151  0.2+  0.0     000722 151  0.5-  0.3+    001206 704  0.2+  0.1+
000706 151  0.2+  0.1-    000722 151  0.1-  0.3-    001206 704  0.6+  0.0
000706 151  0.2+  0.2-    000722 151  0.2-  0.2-    001206 704  0.6+  0.2-
000706 170  0.1+  0.2-    000722 151  0.1-  0.3-    001206 704  0.7+  0.4-
000706 610  0.1+  0.0     000722 151  0.0   0.2-    001206 360  0.1-  0.1-
000706 610  0.0   0.0     000722 151  0.1-  0.5-    001206 360  0.1-  0.0
000706 610  0.1+  0.0     000722 151  0.1-  0.5-    001206 360  0.1-  0.0
000706 170  0.1+  0.3-    000723 739  0.2-  0.3-    001208 349  0.4+  1.1+
000706 610  0.1+  0.1+    000723 739  0.1-  0.2-    001208 349  0.0   0.8+
000706 610  0.2+  0.1+    000723 739  0.1-  0.2-    001208 349  0.6+  1.7+
000706 610  0.0   0.1+    000723 726  0.2+  0.1+    001208 349  0.0   1.1+
000706 610  0.0   0.0     000723 726  0.2-  0.1+    001211 610  0.4+  0.7-
000706 610  0.1+  0.1+    000723 726  0.1-  0.3-    001211 610  0.4+  0.7-
000706 610  0.0   0.2+    000723 726  0.0   0.0     001211 610  0.4+  0.7-
000706 610  0.0   0.1+    000723 726  0.1-  0.4-    001211 610  0.5+  0.8-
000706 610  0.3+  0.1-    000723 726  0.4-  0.3-    001211 610  0.5+  0.8-
000706 610  0.2+  0.1-    000723 670  0.2-  0.1+    001216 610  1.4+  1.6+
000706 170  0.2+  0.2-    000723 670  0.3+  0.1-    001216 610  1.4+  1.5+
000706 610  0.2+  0.1-    000724 642 (3.3-  5.6+)   001216 610  1.4+  1.5+
000706 610  0.2+  0.2-    000724 642  0.6-  1.4+    001216 610  1.4+  1.5+
000706 610  0.1+  0.2-    000724 642  0.5+  0.2+    001216 610  1.4+  1.4+
000707 762  0.1-  0.3+    000724 118  0.5+  0.2+    001219 610  0.1+  0.2+
000707 762  0.1+  0.3+    000724 118  0.5+  0.3+    001219 610  0.1+  0.2+
000707 762  0.1-  0.4+    000724 095  0.4-  0.4-    001219 610  0.0   0.2+
000707 762  0.1-  0.3+    000724 095  0.3-  0.3-    001219 610  0.2+  0.1+
000707 762  0.0   0.3+    000724 095  0.4-  0.4-    001219 610  0.1+  0.0
000707 762  0.1+  0.3+    000724 095  0.4-  0.4-    001220 704  0.4-  0.3+
000707 762  0.1+  0.2+    000724 095  0.5-  0.4-    001220 704  0.0   0.4+
000707 762  0.0   0.2+    000724 095  0.3-  0.3-    001220 704  0.5+  0.9+
000707 762  0.0   0.3+    000724 071  0.1-  0.1+    001220 704  0.2+  0.5+
000707 762  0.2+  0.4+    000725 071  0.2+  1.4-    001220 704  0.5+  0.4+
000707 762  0.0   0.2+    000725 071  0.4-  0.2-    001221 113  0.1+  0.3+
000707 762  0.1-  0.1+    000725 071  0.2-  0.4-    001221 113  0.3-  0.3+
000707 095  0.1+  0.2+    000725 071  0.2-  0.6-    001221 113  0.1-  0.5+
000707 095  0.2+  0.4+    000725 095  0.5-  0.2-    001221 113  0.1-  0.4+
000707 095  0.1+  0.2+    000725 095  0.6-  0.2-    001221 113  0.0   0.4+
000707 095  0.3+  0.3+    000725 095  0.6-  0.3-    001222 557  0.5-  0.2+
000707 095  0.2+  0.2+    000725 095  0.6-  0.2-    001222 557  0.4-  0.0
000707 095  0.2+  0.2-    000725 095  0.6-  0.2-    001222 557  0.3-  0.1-
000707 095  0.2+  0.1+    000725 095  0.7-  0.3-    001222 557  0.3-  0.1-
000707 095  0.2+  0.3+    000726 151  0.1-  0.2-    001223 557  0.4-  0.1-
000707 095  0.2+  0.1+    000726 151  0.5+  0.1+    001223 557  0.3-  0.1-
000707 095  0.1+  0.1+    000726 151  0.4-  0.2+    001223 151  0.6-  0.1+
000707 095  0.2+  0.0     000726 151  0.0   0.3+    001223 151  0.2-  0.3+
000707 095  0.2+  0.3+    000726 151  0.2-  0.2+    001223 151  0.5-  0.1+
000707 095  0.1+  0.2+    000726 151  0.3+  0.1+    001223 151  0.3-  0.1+
000707 106  0.3+  0.3+    000726 151  0.1-  0.3+    001223 151  0.5-  0.3+
000707 106  0.2+  0.2+    000727 726  0.4-  0.3-    001223 151  0.5-  0.2+
000707 106  0.2+  0.2+    000727 726  0.3-  0.1-    001223 610  0.1+  0.3+
000708 859  0.0   0.0     000727 726  0.1-  0.2+    001223 610  0.0   0.4+
000708 859  0.1+  0.2-    000727 726  0.1-  0.0     001223 610  0.1-  0.4+
000708 859  0.4+  0.2-    000727 726  0.1+  0.3-    001223 610  0.0   0.5+
000708 859  0.3+  0.1+    000727 726  0.2-  0.0     001223 610  0.1-  0.5+
000708 349 (1.1-  4.4+)   000727 095  0.4-  1.1+    001224 348  0.4+  0.6-
000708 349 (1.1-  4.6+)   000727 095  0.5-  0.9+    001224 348  0.4+  0.0
000708 349 (1.1-  4.5+)   000727 095  0.4-  0.8+    001228 151  0.6+  0.5-
000708 349 (0.9-  4.6+)   000727 095  0.0   0.1-    001228 151  0.0   0.2-
000708 900  0.0   0.2+    000727 095  0.0   0.1-    001228 151  0.1-  0.7+
000708 900  0.2-  0.2+    000727 095  0.1-  0.2-    001228 151  0.4+  0.3+
000708 351  0.5+  0.6+    000727 095  0.6-  0.1+    001228 151  0.7+  0.2+
000708 351  0.3+  0.6+    000727 095  0.0   0.2-    001228 151  0.4+  0.4-
000708 360  0.1+  0.2-    000727 095  0.1+  0.1-    001228 610  0.5+  0.2-
000708 360  0.0   0.2-    000727 095  0.1+  0.3-    001228 610  0.6+  0.2-
000708 360  0.1+  0.3-    000727 095  0.3-  0.5-    001228 610  0.5+  0.2-
000708 355  0.1+  0.2-    000727 095  0.0   0.2-    001228 610  0.5+  0.3-
000708 413  0.0   0.3-    000727 095  0.1+  0.1+    001228 610  0.4+  0.3-
000708 413  0.1-  0.4-    000727 095  0.2-  0.3-    001229 402  0.3+  0.2-
000708 355  0.1+  0.3-    000727 095  0.2-  0.0     001229 402  0.1+  0.2+
000708 355  0.1+  0.3-    000727 095  0.0   0.0     001229 402  0.0   0.1+
000708 347  0.2+  0.2-    000727 095  0.1-  0.0     001230 704  0.2+  1.0+
000708 347  0.1+  0.1-    000727 095  0.2-  0.7-    001230 704  0.2+  0.3+
000708 347  0.1+  0.1+    000727 095  0.2-  0.2+    001230 704  0.4+  0.3+
000708 347  0.1+  0.1-    000727 095  0.1+  0.1-    001230 704  0.4+  0.0
000708 903  0.2+  0.3+    000727 095  0.1+  0.3-    001230 704  0.6+  0.0
000708 903  0.4+  0.2+    000727 095  0.0   0.2-    001231 610  0.2-  0.4+
000708 903  0.3+  0.0     000727 095  0.1-  0.2-    001231 610  0.2-  0.5+
000708 635  0.0   0.4+    000727 095  0.0   0.1+    001231 610  0.2-  0.5+
000708 635  0.1-  0.3+    000727 095  0.2-  0.1+    001231 610  0.0   0.6+
000708 635  0.1-  0.2+    000727 095  0.0   0.3-    001231 610  0.0   0.6+
000708 635  0.2-  0.5+    000727 095  0.2-  0.2-    010101 726  1.5+  1.4+
000708 635  0.2-  0.2+    000727 095  0.0   0.1+    010101 726  1.5+  0.6+
000708 635  0.2-  0.2+    000727 095  0.2-  0.1-    010101 726  1.4+  1.1+
000708 635  0.2-  0.3+    000727 095  0.1-  0.1-    010101 726  1.1+  1.2+
000708 635  0.2-  0.5+    000727 095  0.1-  0.1-    010102 355  0.1+  0.7+
000708 635  0.1+  0.4+    000727 095  0.0   0.1-    010102 355  0.4+  0.9+
000708 635  0.2-  0.6+    000727 095  0.1-  0.1-    010102 355  0.1-  0.4+
000708 635  0.0   0.7+    000727 095  0.1-  0.2-    010102 355  0.7+  0.5+
000708 635  0.0   0.8+    000727 095  0.1-  0.1-    010103 704  0.1-  0.2+
000708 635  0.0   0.6+    000727 095  0.1-  0.1-    010103 704  0.0   1.3+
000708 635  0.1+  0.6+    000727 095  0.2-  0.1+    010103 704  0.1-  0.2-
000708 635  0.1+  0.4+    000727 095  0.1-  0.2-    010103 704  0.1+  0.3+
000708 635  0.2+  0.8+    000727 095  0.2-  0.2-    010103 704  0.3+  0.4-
000708 635  0.1+  0.9+    000727 095  0.1-  0.0     010114 118  0.0   0.3+
000708 635  0.1+  1.0+    000727 095  0.2-  0.0     010114 118  0.2-  0.4+
000708 635  0.1+  0.9+    000727 095  0.2-  0.1+    010115 046  0.3-  0.4+
000708 635  0.1+  1.0+    000727 095  0.2-  0.1+    010115 046  0.3-  0.7+
000708 170 (4.2+ 21.2-)   000727 095  0.1-  0.1-    010115 046  0.1+  0.4+
000708 170 (5.8+ 30.3-)   000727 095  0.2-  0.1+    010115 046  0.0   0.7+
000708 130  0.4+  0.2-    000727 095  0.0   0.0     010115 046  0.3-  0.7+
000708 130  0.2-  0.7+    000727 095  0.0   0.0     010120 704  0.1+  0.7+
000708 130  0.1-  0.4-    000727 095  0.1-  0.0     010120 704  0.2+  0.3+
000709 859  0.0   0.2-    000727 095  0.1-  0.0     010120 704  0.1-  0.6+
000709 859  0.1+  0.1-    000727 095  0.1-  0.1-    010120 704  0.3+  0.6+
000709 859  0.0   0.1-    000728 095  0.2-  0.1-    010120 704  0.7+  0.7+
000709 859  0.0   0.3-    000728 095  0.1+  0.3-    010121 704  0.9+  0.5+
000709 704  0.1-  0.2+    000728 095  0.0   0.3-    010121 704  0.0   0.9+
000709 642  0.4+  0.0     000728 095  0.1+  0.4-    010121 704  0.1-  0.1+
000709 642  0.4+  0.1-    000728 095  0.0   0.1-    010121 704  0.0   0.7+
000709 704  0.1-  0.6+    000728 095  0.0   0.3-    010121 704  0.2+  0.3+
000709 642  0.2+  0.3-    000728 095  0.2-  0.3-    010121 704  0.2+  0.4+
000709 642  0.0   0.1-    000728 095  0.1-  0.2-    010121 704  0.0   0.3+
000709 704  0.4-  0.5+    000728 095  0.1-  0.3-    010121 704  0.3+  0.5+
000709 670  0.3+  0.2-    000728 095  0.2-  0.4-    010121 704  0.4+  0.4+
000709 642  0.5+  0.2-    000728 095  0.1-  0.2-    010121 704  0.6+  0.9+
000709 642  0.3+  0.2-    000728 095  0.1+  0.3-    010121 704  0.1-  0.9+
000709 642  0.4+  0.2-    000728 095  0.1-  0.4-    010121 704  0.1+  1.1+
000709 670  0.2+  0.1-    000728 095  0.1-  0.3-    010121 704 (4.1-  0.4-)
000709 670  0.4+  0.3-    000728 095  0.1-  0.4-    010201 711  0.5+  0.4-
000709 670  0.3+  0.1-    000728 095  0.0   0.3-    010201 711  1.1-  1.0+
000710 860  0.4+  0.5-    000728 095  0.1-  0.2-    010201 711 (2.4+  3.7+)
000710 860  0.4+  0.7-    000728 095  0.0   0.3-    020119 291  1.5+  1.3+
000710 739  0.0   0.8+    000728 095  0.0   0.3-    020119 291  1.3+  2.2+
000710 860  0.7+  0.8-    000728 095  0.1-  0.2-    020119 291  0.3+  2.4+
000710 739  0.2-  0.7+    000728 095  0.0   0.4-    020209 691  0.2-  0.2+
000710 739  0.2+  0.6-    000728 587  0.8+  0.3+    020209 691  1.0+  1.2+
000710 739  0.1+  0.6-    000728 587  0.6+  0.1-    020209 691  1.1+  1.7+

